GFSGL_700_temp_036.txt.gz
Temp
8 9 8 8 8 8 8 7 7 8 7 7 7 8 8 8 8 8 7 7 7 7 7 7 7 7 6 6 7 6 6 6 6 6 6 6 6 6 6 6 6 6 6
6 9 8 9 8 8 7 7 7 7 7 7 7 7 7 7 7 7 8 7 7 7 7 7 7 7 7 7 7 6 6 6 6 6 6 6 6 5 5 5 6 5 5
7 8 8 8 8 8 7 7 7 7 7 7 7 7 7 7 7 7 7 7 7 7 7 7 7 7 7 6 6 6 6 6 6 6 6 6 6 6 5 5 5 5 5
8 8 8 8 8 7 7 7 7 7 6 6 6 6 6 6 6 6 7 7 7 7 7 7 7 7 7 6 6 6 6 6 6 6 5 5 5 5 5 4 4 4 4
8 8 8 8 8 7 7 7 7 6 6 6 6 6 6 6 6 6 6 6 6 7 7 7 7 7 7 6 6 6 6 6 5 5 5 5 4 4 3 3 4 3 3
8 8 8 8 7 7 7 7 7 6 7 7 6 6 5 5 5 5 6 6 6 6 6 6 6 6 6 6 6 5 5 5 5 5 5 4 4 4 3 3 3 3 3
8 8 8 8 8 8 8 6 6 7 7 6 6 5 5 5 5 5 5 5 5 5 5 5 5 5 5 5 5 4 4 4 4 4 4 4 4 3 3 3 3 3 3
8 8 8 8 8 8 8 7 6 6 7 6 5 5 5 5 5 5 5 5 5 5 5 5 5 5 5 4 4 4 3 3 3 3 3 3 3 3 2 2 2 1 1
6 7 8 8 8 8 7 7 7 7 6 7 4 6 5 5 4 4 5 5 4 4 5 5 4 4 4 4 4 3 3 3 3 3 2 2 2 2 2 2 1 1 0
6 7 8 8 8 8 7 7 7 7 6 5 5 5 6 4 4 4 4 4 4 4 4 4 4 4 4 4 3 3 2 2 2 1 1 1 1 2 2 2 2 1 1
7 8 8 7 8 8 7 7 7 7 7 4 4 6 5 5 4 4 4 3 4 4 4 3 3 3 3 3 3 3 2 2 1 1 1 1 1 1 1 1 1 1 1
8 9 8 8 8 8 8 8 7 5 6 5 5 6 5 4 3 4 4 4 3 3 3 3 3 2 2 2 2 2 2 2 2 2 1 1 1 1 1 1 0 -0 -0
8 8 9 8 8 8 8 8 8 7 7 6 6 6 4 3 3 3 4 3 3 3 3 3 2 2 1 1 1 1 1 1 1 1 1 1 1 0 -0 -0 -0 -0 -0
8 8 9 8 9 9 8 8 8 7 7 6 6 5 4 2 3 3 3 2 2 1 2 1 1 1 1 1 1 1 1 1 1 1 0 -0 -0 -0 -1 -1 -1 -1 -1
8 8 8 8 8 8 8 8 7 7 6 6 6 5 4 3 3 3 2 1 2 1 1 1 0 -1 0 1 1 0 0 -0 -0 -1 -1 -1 -1 -1 -1 -1 -1 -2 -2
8 8 8 8 8 8 7 7 7 6 6 6 5 5 4 4 4 3 3 3 2 2 1 1 -0 -0 -1 -1 -0 -1 -1 -1 -1 -1 -1 -1 -1 -1 -1 -2 -2 -2 -2
7 7 7 7 7 7 7 6 6 6 5 5 5 4 4 3 3 3 3 2 2 1 1 0 -1 -1 -1 -1 -1 -1 -1 -2 -2 -2 -2 -2 -2 -2 -2 -2 -2 -3 -3
7 6 6 6 6 6 6 5 5 5 5 4 4 3 3 3 2 2 2 2 1 1 0 -0 -1 -1 -2 -2 -2 -2 -3 -3 -3 -3 -3 -3 -3 -3 -3 -3 -3 -4 -4
6 6 6 6 5 5 5 5 4 4 4 3 3 2 2 2 2 1 1 1 1 0 -0 -1 -1 -2 -3 -3 -3 -4 -4 -4 -4 -4 -4 -4 -4 -4 -4 -5 -5 -5 -5
5 5 5 5 4 4 4 4 3 3 2 2 1 1 1 1 0 0 -0 -0 -1 -1 -2 -2 -3 -3 -4 -4 -4 -5 -5 -5 -5 -5 -5 -5 -5 -5 -6 -6 -6 -6 -6
5 5 4 4 3 3 3 3 2 1 1 0 -0 -1 -1 -1 -1 -1 -2 -2 -2 -3 -3 -3 -4 -4 -5 -5 -5 -5 -5 -6 -6 -6 -6 -6 -6 -6 -6 -6 -7 -7 -7
4 3 2 2 2 2 1 1 0 -0 -1 -1 -2 -1 -2 -2 -2 -2 -2 -3 -3 -4 -4 -4 -4 -5 -5 -5 -6 -6 -6 -6 -6 -6 -6 -7 -7 -7 -7 -7 -7 -7 -7
3 2 2 1 1 0 -0 -0 -1 -1 -2 -2 -2 -2 -2 -3 -3 -3 -4 -4 -5 -5 -5 -5 -5 -6 -5 -6 -6 -6 -6 -6 -6 -6 -6 -7 -7 -7 -7 -7 -7 -7 -7
2 2 1 1 0 -0 -1 -1 -2 -2 -2 -2 -2 -2 -3 -3 -3 -4 -3 -4 -5 -5 -5 -5 -5 -5 -5 -5 -5 -5 -5 -5 -6 -5 -5 -5 -5 -6 -6 -6 -7 -7 -8
1 1 0 0 -1 -1 -1 -2 -2 -2 -2 -3 -3 -3 -3 -3 -3 -3 -4 -4 -4 -4 -5 -4 -4 -5 -5 -5 -5 -4 -4 -5 -5 -5 -5 -5 -5 -5 -5 -6 -6 -6 -6
-0 -0 -1 -1 -1 -2 -2 -3 -2 -2 -2 -2 -4 -4 -3 -2 -4 -5 -4 -5 -5 -5 -4 -4 -4 -4 -4 -4 -4 -4 -4 -4 -5 -5 -5 -5 -5 -5 -6 -6 -6 -6 -6

GFSGL_700_temp_042.txt.gz
Temp
6 7 7 8 8 8 7 8 8 8 8 8 8 8 8 8 8 8 8 8 8 8 8 8 8 8 8 7 7 7 7 7 6 6 6 6 6 5 6 6 6 6 6
6 7 7 7 7 7 7 7 7 7 7 7 7 7 7 7 7 7 8 8 8 8 8 8 8 8 8 7 7 7 7 6 6 6 7 6 6 6 6 6 6 6 6
7 7 7 7 7 7 7 7 7 7 7 7 7 7 7 7 7 7 7 7 8 8 8 8 8 8 8 7 7 7 7 7 7 6 6 6 5 5 5 5 4 4 4
8 7 7 7 7 7 7 7 7 7 7 7 7 7 6 6 6 6 6 7 7 7 7 7 7 7 7 7 7 7 7 6 6 6 6 5 5 5 5 4 4 5 4
8 7 7 7 7 7 7 7 7 7 7 7 7 6 6 6 6 6 6 6 6 6 6 7 7 7 7 7 7 7 7 7 6 6 6 6 5 5 5 4 4 3 4
9 8 7 7 7 7 7 7 7 7 7 7 7 7 6 6 6 6 6 6 6 6 6 6 6 6 6 6 6 6 6 6 5 5 5 5 4 4 4 4 4 3 3
8 7 7 7 7 7 7 6 7 7 7 7 7 7 7 6 6 6 6 6 6 6 5 6 5 5 5 5 5 5 5 5 5 5 5 4 4 4 4 4 4 4 4
7 7 7 7 7 6 7 7 6 7 7 7 7 7 6 7 6 6 6 5 5 5 5 5 5 5 5 4 4 4 4 4 4 4 4 4 4 3 3 3 3 3 3
7 6 6 7 7 6 7 7 6 6 7 6 6 6 7 6 7 6 5 5 5 4 4 5 5 4 4 4 4 3 3 3 3 3 3 3 3 3 3 3 2 2 2
7 7 6 6 7 6 6 7 6 6 6 7 6 6 6 6 6 6 5 4 4 3 4 4 4 4 4 3 3 3 2 3 3 3 3 3 3 3 3 3 2 2 1
7 7 6 6 7 7 7 7 6 6 7 7 6 5 5 5 5 5 4 3 4 3 3 3 3 4 3 3 2 2 3 3 3 3 3 3 3 3 3 3 2 2 1
7 7 7 7 7 7 7 7 7 7 7 7 7 6 6 6 6 5 4 3 4 4 3 3 3 3 2 2 2 2 3 3 3 2 2 2 2 1 2 2 1 1 1
7 8 8 8 8 8 8 8 7 7 7 8 7 6 6 6 5 5 4 3 3 3 3 2 2 3 2 2 2 2 3 2 2 2 1 1 1 1 1 1 1 1 1
8 8 8 8 8 8 8 8 8 8 7 7 7 6 6 6 5 5 4 5 4 4 3 2 2 2 2 2 2 2 2 2 2 1 1 1 1 1 1 1 0 -0 -1
9 9 9 8 8 8 8 8 8 8 8 7 7 7 6 6 5 5 5 5 4 4 3 1 1 1 2 2 2 2 2 2 1 1 1 0 0 -0 -0 -0 -0 -1 -1
9 9 9 8 8 8 8 8 8 7 7 7 6 6 6 6 5 5 4 4 4 3 2 1 1 1 1 1 1 1 1 0 0 -0 -0 -0 -1 -1 -1 -1 -2 -2 -2
8 8 8 8 7 7 7 7 7 7 7 7 6 6 6 5 5 5 4 4 3 2 2 1 1 1 1 1 0 0 -0 -1 -1 -1 -1 -1 -1 -2 -2 -2 -3 -3 -3
7 7 7 7 7 6 6 6 6 6 6 6 6 5 5 5 4 4 4 3 2 2 2 1 1 0 0 -0 -1 -1 -1 -1 -1 -2 -2 -2 -2 -3 -3 -3 -4 -4 -4
7 7 7 7 6 6 6 6 6 6 6 5 5 5 5 4 4 3 3 2 2 1 1 0 -0 -1 -1 -1 -1 -2 -2 -2 -2 -2 -3 -3 -3 -3 -4 -6 -6 -6 -6
6 6 6 6 6 6 6 5 5 5 5 4 4 4 3 3 3 2 2 1 1 0 -0 -1 -1 -1 -2 -2 -2 -2 -3 -4 -5 -5 -6 -6 -6 -6 -7 -7 -7 -7 -7
6 6 5 5 5 5 4 4 4 4 4 3 3 3 2 2 1 1 0 -0 -0 -1 -1 -2 -2 -3 -2 -3 -3 -4 -5 -6 -6 -6 -6 -6 -5 -4 -6 -7 -7 -7 -7
4 4 4 3 3 3 3 3 3 2 2 2 2 1 1 -0 -0 -1 -1 -1 -1 -2 -2 -2 -3 -4 -5 -4 -4 -4 -5 -4 -4 -4 -4 -4 -4 -4 -4 -5 -7 -7 -7
3 3 3 3 2 2 2 2 2 1 1 0 -0 -0 -1 -1 -1 -2 -2 -2 -2 -2 -3 -3 -4 -4 -4 -4 -4 -4 -4 -4 -4 -4 -4 -4 -4 -4 -4 -5 -5 -6 -6
3 3 2 1 1 0 1 0 -0 -0 -2 -2 -2 -2 -2 -1 -2 -2 -2 -2 -3 -2 -3 -3 -4 -4 -4 -4 -4 -4 -4 -4 -4 -4 -4 -4 -4 -4 -4 -4 -5 -5 -5
2 2 1 1 -0 -0 -0 -1 -1 -2 -2 -2 -2 -2 -2 -2 -2 -2 -3 -3 -3 -2 -3 -3 -4 -4 -4 -4 -4 -4 -4 -3 -3 -3 -4 -4 -4 -4 -4 -4 -5 -5 -5
2 1 1 1 -1 -1 -1 -2 -2 -2 -2 -2 -2 -2 -2 -2 -2 -2 -3 -3 -3 -3 -3 -3 -4 -4 -4 -4 -4 -3 -3 -3 -3 -4 -4 -4 -4 -4 -4 -5 -5 -5 -5

GFSGL_700_temp_045.txt.gz
Temp
8 8 7 8 8 8 8 8 8 7 7 7 8 8 8 8 8 8 8 9 9 9 9 9 8 8 8 8 8 8 7 7 7 6 6 6 6 6 5 5 5 6 6
8 7 7 7 7 8 8 8 7 7 7 7 7 7 8 8 8 8 8 8 8 8 8 9 9 8 8 8 8 8 7 7 6 6 7 7 6 6 6 5 5 6 6
7 7 8 8 8 8 8 7 7 7 7 7 7 7 7 7 7 7 7 7 8 8 8 8 8 8 8 8 8 7 7 7 7 7 6 6 6 6 5 5 4 4 4
8 8 8 8 8 7 7 7 7 7 7 7 7 7 7 7 7 7 7 7 7 7 8 8 8 8 8 7 8 7 7 7 7 6 6 6 5 5 5 4 5 4 5
8 8 8 8 8 7 7 7 7 7 7 7 7 6 6 6 6 6 6 7 7 7 7 7 7 7 7 7 7 7 7 7 6 6 6 5 5 5 4 5 4 4 4
8 8 8 8 8 7 7 7 7 7 7 7 7 6 6 6 6 6 6 6 6 6 6 6 6 7 7 7 7 7 6 6 6 6 5 5 5 5 4 4 5 4 5
8 8 8 8 8 7 7 7 7 7 6 6 6 6 6 6 6 6 6 6 6 6 6 6 6 6 6 6 5 5 5 5 5 5 5 5 5 4 4 4 4 4 4
7 7 7 7 7 7 7 7 7 6 6 6 6 6 6 6 6 6 6 5 5 5 5 5 5 5 5 5 5 4 4 4 5 5 4 4 4 4 4 4 4 3 3
6 5 7 7 7 7 7 7 7 7 6 6 6 7 6 6 6 6 5 5 5 5 5 5 5 5 4 4 4 4 4 4 4 4 4 4 4 4 4 4 4 3 -1
5 6 7 7 7 6 7 7 6 7 7 7 6 7 7 6 6 6 6 4 4 4 4 4 4 4 4 4 3 3 3 3 4 4 4 4 4 4 4 3 3 2 2
6 6 6 6 5 5 6 7 7 6 7 7 7 7 7 6 6 6 6 5 4 4 4 4 4 3 3 3 3 3 3 3 4 4 4 4 4 4 4 3 3 2 1
7 7 7 6 5 6 7 7 7 7 7 7 8 7 7 7 6 6 6 6 5 4 4 4 3 3 3 3 3 3 3 3 3 3 2 2 2 2 2 3 2 2 1
8 7 7 6 6 6 6 6 7 7 7 7 8 7 8 7 6 6 6 6 4 4 3 3 3 3 3 2 3 3 3 3 2 2 2 2 2 2 1 2 2 2 2
8 8 7 7 7 7 7 7 8 7 7 7 8 8 8 6 6 6 6 5 5 5 4 3 3 1 2 3 3 3 3 2 2 2 1 1 1 1 1 1 0 0 -0
8 8 8 8 8 8 7 7 8 8 7 7 7 7 7 7 6 6 6 5 5 5 4 3 3 2 3 3 3 2 2 2 2 1 1 1 0 -0 -0 -0 -0 -1 -2
9 9 8 8 8 8 8 8 8 7 7 7 7 7 7 6 6 6 5 5 4 4 4 3 2 0 -0 1 1 1 2 1 1 0 0 -0 -0 -1 -1 -1 -2 -2 -3
8 8 8 8 8 7 7 7 7 7 7 7 7 6 6 6 6 6 5 4 4 3 3 2 -1 0 0 1 1 -0 -1 0 -0 -0 -1 -1 -1 -2 -2 -3 -3 -4 -5
7 7 7 7 7 7 7 7 6 6 6 6 6 6 6 6 6 5 4 4 3 3 2 -1 -2 0 1 1 -0 -1 -1 -1 -2 -1 -2 -2 -2 -2 -4 -5 -5 -5 -5
7 7 7 7 7 7 7 6 6 6 6 6 6 6 6 5 5 4 4 3 3 2 2 -2 -2 0 0 -0 -1 -1 -1 -2 -2 -2 -3 -3 -4 -5 -5 -5 -5 -5 -5
7 6 6 6 6 6 6 6 5 5 5 6 5 5 5 5 4 3 3 3 2 -0 -1 -2 -1 -0 -1 -1 -2 -1 -3 -4 -4 -4 -5 -5 -5 -5 -5 -5 -5 -5 -5
6 5 6 5 4 5 4 4 2 3 4 4 4 4 4 3 3 3 2 2 1 0 -1 -1 -3 -2 -2 -3 -3 -4 -5 -4 -4 -5 -5 -5 -5 -4 -5 -6 -4 -5 -6
4 4 4 4 2 3 3 3 3 3 3 3 2 3 3 2 0 1 1 0 -0 -1 -2 -1 -2 -3 -3 -4 -4 -4 -4 -5 -5 -5 -5 -4 -4 -4 -4 -5 -6 -6 -6
3 3 2 2 2 2 2 1 1 1 -0 -1 -1 1 1 1 -1 -2 -2 -3 -3 -3 -2 -1 -2 -3 -4 -3 -3 -3 -3 -4 -4 -4 -3 -3 -4 -4 -4 -4 -4 -4 -4
3 3 3 2 2 2 1 0 -1 -1 -1 -1 -1 -1 -1 -1 -1 -2 -2 -2 -2 -2 -2 -2 -2 -3 -3 -3 -3 -3 -3 -4 -4 -4 -3 -3 -3 -3 -4 -4 -4 -4 -4
2 3 3 3 2 1 0 -0 -1 -1 -1 -1 -1 -1 -1 -1 -1 -2 -3 -3 -2 -2 -3 -3 -3 -3 -3 -3 -3 -3 -4 -3 -3 -3 -3 -3 -3 -3 -4 -4 -4 -4 -5
2 2 2 1 1 1 -1 -1 -1 -1 -1 -1 -2 -2 -1 -2 -2 -2 -2 -2 -2 -2 -3 -3 -2 -2 -2 -2 -3 -4 -3 -3 -3 -3 -3 -4 -4 -4 -4 -4 -4 -5 -5

GFSGL_700_temp_048.txt.gz
Temp
8 8 7 8 8 8 8 8 8 8 8 8 8 8 8 8 8 8 8 8 8 9 9 8 8 8 8 8 8 8 7 7 7 7 7 7 6 6 6 6 5 5 5
8 7 7 7 8 8 8 8 8 8 8 7 7 7 7 7 7 7 7 8 8 8 8 8 8 8 8 8 8 8 8 7 7 7 6 6 6 6 6 5 4 5 6
7 6 7 8 8 8 8 8 8 8 7 7 7 7 7 7 7 7 7 8 8 8 8 8 8 8 8 8 8 8 8 7 7 7 7 7 6 5 5 5 5 3 4
9 8 8 8 8 8 7 7 8 8 7 7 7 7 6 6 6 7 7 7 7 7 7 7 7 7 7 8 7 7 7 7 7 7 6 6 6 5 4 4 4 4 5
9 8 9 8 8 8 7 8 8 7 7 7 7 7 6 6 6 6 6 6 7 7 7 7 7 7 7 7 7 7 7 7 6 6 6 5 5 5 5 4 4 4 4
9 9 9 8 8 8 8 8 7 7 7 7 7 7 6 6 6 6 7 6 6 6 6 6 6 7 7 7 6 6 6 6 6 6 6 5 5 4 4 4 4 4 4
9 8 8 8 8 7 7 7 7 7 7 7 7 7 7 7 6 6 6 7 7 7 6 6 6 6 6 6 5 5 5 5 5 5 5 5 5 5 4 4 4 4 4
8 7 8 7 7 7 7 7 7 7 7 7 7 7 7 7 7 6 6 6 6 6 6 6 6 6 5 5 5 5 5 5 5 4 4 4 4 4 4 4 4 3 3
8 6 6 6 6 6 7 7 8 7 7 7 7 7 7 7 7 7 7 6 6 6 6 5 5 5 5 5 5 4 4 4 5 4 4 4 4 4 4 4 3 3 3
8 6 6 6 5 6 7 6 7 7 7 6 7 7 7 7 7 7 7 7 6 6 6 5 4 4 4 4 4 4 4 4 4 4 5 4 4 4 4 4 3 3 2
8 6 6 5 6 6 6 4 6 7 7 7 7 7 7 7 7 7 7 7 7 6 5 4 4 4 3 3 4 4 4 4 4 4 4 4 4 4 3 3 3 2 2
8 7 8 7 6 5 5 6 6 6 6 6 7 7 7 7 7 7 7 6 6 6 5 5 5 4 3 3 4 4 4 4 3 4 3 3 2 2 3 2 2 2 1
8 8 7 7 7 7 7 6 6 6 6 6 7 7 7 7 7 7 7 7 7 6 6 5 4 4 4 3 3 3 3 3 3 3 2 2 2 2 2 2 2 2 1
8 8 8 7 7 7 7 7 7 7 7 7 7 6 7 7 7 7 7 6 6 6 5 5 4 4 4 3 3 3 3 3 2 2 2 2 1 2 2 1 1 1 0
8 8 8 8 8 8 8 8 7 7 7 7 7 6 6 7 7 6 6 6 6 5 5 4 4 3 3 3 3 3 3 2 2 1 1 1 1 1 1 0 0 0 -0
9 8 8 8 8 8 8 7 8 8 7 7 5 5 5 6 6 6 6 6 5 5 5 4 3 2 3 3 2 2 2 1 1 1 1 1 0 0 -0 -1 -0 -1 -2
8 8 8 8 8 8 8 8 8 8 7 7 5 5 6 5 6 6 6 5 5 4 3 2 2 3 -0 -0 0 -0 1 1 0 0 0 0 0 -0 -1 -1 -2 -3 -3
7 7 7 7 8 7 7 7 7 7 6 6 6 5 5 5 5 5 5 5 4 4 3 2 2 -1 -1 0 -0 -1 -1 -0 0 1 -0 -0 -1 -1 -2 -4 -4 -5 -4
7 7 7 7 7 7 7 7 7 7 6 6 6 5 6 5 5 5 5 4 4 3 2 1 -1 -1 -1 -1 -0 -0 -1 -1 -1 -2 -2 -2 -2 -3 -4 -5 -5 -5 -5
5 6 6 6 6 6 6 6 6 5 5 6 6 5 5 5 5 4 4 4 3 3 2 1 -1 -2 -1 -1 -0 -0 -1 -2 -2 -2 -3 -5 -5 -4 -4 -3 -3 -3 -4
4 5 6 5 5 5 4 4 3 3 2 2 4 6 4 4 4 4 3 3 2 1 -0 -2 -2 -2 -2 -2 -2 -2 -2 -3 -4 -5 -4 -5 -5 -5 -4 -3 -2 -3 -3
4 4 3 4 4 2 2 2 2 2 2 2 1 2 3 3 3 2 2 1 1 1 -2 -2 -2 -3 -3 -3 -3 -3 -4 -4 -4 -4 -4 -4 -3 -4 -4 -3 -3 -3 -3
3 3 3 3 2 3 2 1 0 0 0 0 -1 1 1 1 1 0 -2 -1 -1 -1 -1 -2 -1 -2 -3 -3 -3 -3 -3 -4 -4 -4 -4 -4 -4 -3 -3 -3 -3 -3 -3
3 3 3 3 2 2 2 2 -0 -1 -1 -1 -1 -1 -1 -1 -1 -2 -2 -2 -2 -2 -3 -1 -2 -2 -3 -3 -3 -3 -3 -3 -4 -4 -4 -4 -3 -3 -3 -3 -3 -3 -3
2 2 2 3 2 2 2 1 1 -1 -1 1 -1 -1 -1 -1 -1 -1 -2 -2 -2 -2 -2 -3 -3 -3 -3 -3 -3 -3 -3 -3 -3 -4 -4 -3 -3 -3 -3 -3 -3 -3 -4
2 2 2 2 2 1 1 1 0 -0 -1 -1 -1 -1 -1 -1 -1 -1 -1 -2 -2 -2 -2 -2 -2 -3 -3 -2 -1 -3 -3 -3 -3 -3 -3 -3 -3 -3 -3 -3 -3 -4 -4